sat.trackr.live / text

‹ back to catalog

STARLINK-5458

NORAD 54764 · 2022-175G

PAYLOAD ACTIVE UNKNOWN

§ Identity

Operator
Country
US
Launch date
2022-12-17
Launch site
AFETR
Launch vehicle
Mass (kg)
RCS (m²)

Purposes: comms

External: N2YO · Heavens-Above · Gunter

§ Orbital elements

Epoch: 2026-09-20T15:56:01.487904Z

Period
93.85 min
Inclination
53.1610°
Eccentricity
0.0001308
Mean motion
15.34389924 rev/d
Perigee alt
461.8 km
Apogee alt
463.6 km
Semi-major
6,840.9 km
B*
9.0029e-6
RAAN
236.9601°
Arg perigee
86.8704°
Mean anomaly
273.2448°
Rev number
20,951

§ Raw data

STARLINK-54581 54764U 22175G   26263.66390611 -.00000072  00000+0  90029-5 0  99982 54764  53.1610 236.9601 0001308  86.8704 273.2448 15.34389924209511

JSON: /api/v1/satellites/54764 · /tle

For live sub-satellite position, see the globe view (requires WebGL).

§ Visibility from observer

Set your observer location to see the next 7 days of passes ≥ 10°. The values pass through the URL so the page stays shareable.

No JS? Fill the form by hand. The geolocation button needs JavaScript.